Year,Month,Day,Hour,Minute,Value (Times are PST for temperature in C)
2015,10,22,09,20,7.50
2015,10,22,09,21,7.50
2015,10,22,09,22,7.60
2015,10,22,09,23,7.60
2015,10,22,09,24,7.70
2015,10,22,09,25,7.80
2015,10,22,09,26,7.80
2015,10,22,09,27,7.80
2015,10,22,09,28,7.90
2015,10,22,09,29,8.00
2015,10,22,09,30,8.00
2015,10,22,09,31,8.10
2015,10,22,09,32,8.20
2015,10,22,09,33,8.30
2015,10,22,09,34,8.40
2015,10,22,09,35,8.50
2015,10,22,09,36,8.60
2015,10,22,09,37,8.70
2015,10,22,09,38,8.90
2015,10,22,09,39,9.00
2015,10,22,09,40,9.10
2015,10,22,09,41,9.20
2015,10,22,09,42,9.30
2015,10,22,09,43,9.40
2015,10,22,09,44,9.50
2015,10,22,09,45,9.60
2015,10,22,09,46,9.70
2015,10,22,09,47,9.80
2015,10,22,09,48,9.90
2015,10,22,09,49,10.00
2015,10,22,09,50,10.10
2015,10,22,09,51,10.20
2015,10,22,09,52,10.20
2015,10,22,09,53,10.30
2015,10,22,09,54,10.30
2015,10,22,09,55,10.30
2015,10,22,09,56,10.30
2015,10,22,09,57,10.40
2015,10,22,09,58,10.40
2015,10,22,09,59,10.40
2015,10,22,10,00,10.40
2015,10,22,10,01,10.40
2015,10,22,10,02,10.40
2015,10,22,10,03,10.50
2015,10,22,10,04,10.50
2015,10,22,10,05,10.60
2015,10,22,10,06,10.70
2015,10,22,10,07,10.70
2015,10,22,10,08,10.80
2015,10,22,10,09,10.80
2015,10,22,10,10,10.80
2015,10,22,10,11,10.80
2015,10,22,10,12,10.80
2015,10,22,10,13,10.90
2015,10,22,10,14,10.90
2015,10,22,10,15,10.90
2015,10,22,10,16,11.00
2015,10,22,10,17,11.00
2015,10,22,10,18,11.10
2015,10,22,10,19,11.10
2015,10,22,10,20,11.20
2015,10,22,10,21,11.20
2015,10,22,10,22,11.30
2015,10,22,10,23,11.30
2015,10,22,10,24,11.40
2015,10,22,10,25,11.40
2015,10,22,10,26,11.50
2015,10,22,10,27,11.50
2015,10,22,10,28,11.60
2015,10,22,10,29,11.60
2015,10,22,10,30,11.70
2015,10,22,10,31,11.70
2015,10,22,10,32,11.70
2015,10,22,10,33,11.70
2015,10,22,10,34,11.70
2015,10,22,10,35,11.70
2015,10,22,10,36,11.80
2015,10,22,10,37,11.90
2015,10,22,10,38,11.90
2015,10,22,10,39,11.90
2015,10,22,10,40,11.90
2015,10,22,10,41,11.90
2015,10,22,10,42,12.00
2015,10,22,10,43,11.90
2015,10,22,10,44,11.90
2015,10,22,10,45,11.90
2015,10,22,10,46,11.90
2015,10,22,10,47,11.90
2015,10,22,10,48,11.90
2015,10,22,10,49,11.90
2015,10,22,10,50,12.00
2015,10,22,10,51,12.00
2015,10,22,10,52,12.10
2015,10,22,10,53,12.10
2015,10,22,10,54,12.10
2015,10,22,10,55,12.10
2015,10,22,10,56,12.20
2015,10,22,10,57,12.20
2015,10,22,10,58,12.20
2015,10,22,10,59,12.20
2015,10,22,11,00,12.20
2015,10,22,11,01,12.20
2015,10,22,11,02,12.30
2015,10,22,11,03,12.30
2015,10,22,11,04,12.30
2015,10,22,11,05,12.30
2015,10,22,11,06,12.30
2015,10,22,11,07,12.30
2015,10,22,11,08,12.40
2015,10,22,11,09,12.50
2015,10,22,11,10,12.50
2015,10,22,11,11,12.50
2015,10,22,11,12,12.60
2015,10,22,11,13,12.60
2015,10,22,11,14,12.60
2015,10,22,11,15,12.60
2015,10,22,11,16,12.70
2015,10,22,11,17,12.80
2015,10,22,11,18,12.80
2015,10,22,11,19,13.00
2015,10,22,11,20,13.10
2015,10,22,11,21,13.10
2015,10,22,11,22,13.10
2015,10,22,11,23,13.10
2015,10,22,11,24,13.10
2015,10,22,11,25,13.00
2015,10,22,11,26,12.90
2015,10,22,11,27,12.80
2015,10,22,11,28,12.70
2015,10,22,11,29,12.60
2015,10,22,11,30,12.40
2015,10,22,11,31,12.20
2015,10,22,11,32,12.00
2015,10,22,11,33,11.80
2015,10,22,11,34,11.70
2015,10,22,11,35,11.60
2015,10,22,11,36,11.50
2015,10,22,11,37,11.40
2015,10,22,11,38,11.40
2015,10,22,11,39,11.30
2015,10,22,11,40,11.20
2015,10,22,11,41,11.20
2015,10,22,11,42,11.20
2015,10,22,11,43,11.20
2015,10,22,11,44,11.20
2015,10,22,11,45,11.20
2015,10,22,11,46,11.30
2015,10,22,11,47,11.40
2015,10,22,11,48,11.40
2015,10,22,11,49,11.50
2015,10,22,11,50,11.60
2015,10,22,11,51,11.70
2015,10,22,11,52,11.80
2015,10,22,11,53,11.90
2015,10,22,11,54,11.90
2015,10,22,11,55,11.90
2015,10,22,11,56,11.80
2015,10,22,11,57,11.70
2015,10,22,11,58,11.70
2015,10,22,11,59,11.60
2015,10,22,12,00,11.50
2015,10,22,12,01,11.50
2015,10,22,12,02,11.50
2015,10,22,12,03,11.50
2015,10,22,12,04,11.60
2015,10,22,12,05,11.60
2015,10,22,12,06,11.70
2015,10,22,12,07,11.80
2015,10,22,12,08,11.80
2015,10,22,12,09,11.90
2015,10,22,12,10,11.90
2015,10,22,12,11,12.00
2015,10,22,12,12,12.00
2015,10,22,12,13,12.10
2015,10,22,12,14,12.10
2015,10,22,12,15,12.10
2015,10,22,12,16,12.10
2015,10,22,12,17,12.20
2015,10,22,12,18,12.20
2015,10,22,12,19,12.20
2015,10,22,12,20,12.10
2015,10,22,12,21,12.10
2015,10,22,12,22,12.00
2015,10,22,12,23,11.90
2015,10,22,12,24,11.80
2015,10,22,12,25,11.90
2015,10,22,12,26,11.90
2015,10,22,12,27,11.90
2015,10,22,12,28,12.00
2015,10,22,12,29,12.00
2015,10,22,12,30,12.00
2015,10,22,12,31,12.00
2015,10,22,12,32,12.00
2015,10,22,12,33,12.00
2015,10,22,12,34,12.00
2015,10,22,12,35,12.00
2015,10,22,12,36,12.10
2015,10,22,12,37,12.10
2015,10,22,12,38,12.10
2015,10,22,12,39,12.20
2015,10,22,12,40,12.20
2015,10,22,12,41,12.20
2015,10,22,12,42,12.20
2015,10,22,12,43,12.30
2015,10,22,12,44,12.30
2015,10,22,12,45,12.40
2015,10,22,12,46,12.40
2015,10,22,12,47,12.40
2015,10,22,12,48,12.50
2015,10,22,12,49,12.50
2015,10,22,12,50,12.60
2015,10,22,12,51,12.60
2015,10,22,12,52,12.60
2015,10,22,12,53,12.60
2015,10,22,12,54,12.60
2015,10,22,12,55,12.60
2015,10,22,12,56,12.60
2015,10,22,12,57,12.60
2015,10,22,12,58,12.60
2015,10,22,12,59,12.60
2015,10,22,13,00,12.60
2015,10,22,13,01,12.60
2015,10,22,13,02,12.50
2015,10,22,13,03,12.50
2015,10,22,13,04,12.50
2015,10,22,13,05,12.50
2015,10,22,13,06,12.50
2015,10,22,13,07,12.50
2015,10,22,13,08,12.50
2015,10,22,13,09,12.60
2015,10,22,13,10,12.70
2015,10,22,13,11,12.70
2015,10,22,13,12,12.80
2015,10,22,13,13,12.80
2015,10,22,13,14,12.80
2015,10,22,13,15,12.80
2015,10,22,13,16,12.80
2015,10,22,13,17,12.80
2015,10,22,13,18,12.80
2015,10,22,13,19,12.80
2015,10,22,13,20,12.70
2015,10,22,13,21,12.70
2015,10,22,13,22,12.70
2015,10,22,13,23,12.70
2015,10,22,13,24,12.80
2015,10,22,13,25,12.80
2015,10,22,13,26,12.90
2015,10,22,13,27,12.90
2015,10,22,13,28,12.90
2015,10,22,13,29,12.90
2015,10,22,13,30,12.90
2015,10,22,13,31,13.00
2015,10,22,13,32,13.00
2015,10,22,13,33,13.00
2015,10,22,13,34,13.10
2015,10,22,13,35,13.10
2015,10,22,13,36,13.20
2015,10,22,13,37,13.30
2015,10,22,13,38,13.30
2015,10,22,13,39,13.30
2015,10,22,13,40,13.30
2015,10,22,13,41,13.20
2015,10,22,13,42,13.10
2015,10,22,13,43,13.00
2015,10,22,13,44,13.00
2015,10,22,13,45,13.00
2015,10,22,13,46,13.00
2015,10,22,13,47,13.00
2015,10,22,13,48,13.10
2015,10,22,13,49,13.10
2015,10,22,13,50,13.20
2015,10,22,13,51,13.20
2015,10,22,13,52,13.20
2015,10,22,13,53,13.20
2015,10,22,13,54,13.30
2015,10,22,13,55,13.30
2015,10,22,13,56,13.30
2015,10,22,13,57,13.30
2015,10,22,13,58,13.30
2015,10,22,13,59,13.40
2015,10,22,14,00,13.30
2015,10,22,14,01,13.20
2015,10,22,14,02,13.20
2015,10,22,14,03,13.10
2015,10,22,14,04,13.00
2015,10,22,14,05,13.00
2015,10,22,14,06,13.00
2015,10,22,14,07,13.10
2015,10,22,14,08,13.10
2015,10,22,14,09,13.10
2015,10,22,14,10,13.10
2015,10,22,14,11,13.10
2015,10,22,14,12,13.20
2015,10,22,14,13,13.20
2015,10,22,14,14,13.20
2015,10,22,14,15,13.20
2015,10,22,14,16,13.20
2015,10,22,14,17,13.20
2015,10,22,14,18,13.20
2015,10,22,14,19,13.20
2015,10,22,14,20,13.10
2015,10,22,14,21,13.10
2015,10,22,14,22,13.20
2015,10,22,14,23,13.20
2015,10,22,14,24,13.30
2015,10,22,14,25,13.40
2015,10,22,14,26,13.40
2015,10,22,14,27,13.50
2015,10,22,14,28,13.50
2015,10,22,14,29,13.60
2015,10,22,14,30,13.50
2015,10,22,14,31,13.40
2015,10,22,14,32,13.40
2015,10,22,14,33,13.40
2015,10,22,14,34,13.30
2015,10,22,14,35,13.30
2015,10,22,14,36,13.30
2015,10,22,14,37,13.30
2015,10,22,14,38,13.30
2015,10,22,14,39,13.20
2015,10,22,14,40,13.20
2015,10,22,14,41,13.20
2015,10,22,14,42,13.20
2015,10,22,14,43,13.20
2015,10,22,14,44,13.20
2015,10,22,14,45,13.20
2015,10,22,14,46,13.30
2015,10,22,14,47,13.30
2015,10,22,14,48,13.30
2015,10,22,14,49,13.30
2015,10,22,14,50,13.30
2015,10,22,14,51,13.40
2015,10,22,14,52,13.40
2015,10,22,14,53,13.40
2015,10,22,14,54,13.40
2015,10,22,14,55,13.40
2015,10,22,14,56,13.50
2015,10,22,14,57,13.40
2015,10,22,14,58,13.50
2015,10,22,14,59,13.50
2015,10,22,15,00,13.50
2015,10,22,15,01,13.60
2015,10,22,15,02,13.60
2015,10,22,15,03,13.70
2015,10,22,15,04,13.70
2015,10,22,15,05,13.70
2015,10,22,15,06,13.70
2015,10,22,15,07,13.60
2015,10,22,15,08,13.60
2015,10,22,15,09,13.50
2015,10,22,15,10,13.50
2015,10,22,15,11,13.50
2015,10,22,15,12,13.50
2015,10,22,15,13,13.50
2015,10,22,15,14,13.40
2015,10,22,15,15,13.40
2015,10,22,15,16,13.30
2015,10,22,15,17,13.30
2015,10,22,15,18,13.30
2015,10,22,15,19,13.30
2015,10,22,15,20,13.30
2015,10,22,15,21,13.30
2015,10,22,15,22,13.30
2015,10,22,15,23,13.30
2015,10,22,15,24,13.30
2015,10,22,15,25,13.30
2015,10,22,15,26,13.40
2015,10,22,15,27,13.50
2015,10,22,15,28,13.50
2015,10,22,15,29,13.60
2015,10,22,15,30,13.60
2015,10,22,15,31,13.60
2015,10,22,15,32,13.60
2015,10,22,15,33,13.60
2015,10,22,15,34,13.60
2015,10,22,15,35,13.60
2015,10,22,15,36,13.60
2015,10,22,15,37,13.60
2015,10,22,15,38,13.60
2015,10,22,15,39,13.60
2015,10,22,15,40,13.70
2015,10,22,15,41,13.70
2015,10,22,15,42,13.80
2015,10,22,15,43,13.80
2015,10,22,15,44,13.90
2015,10,22,15,45,14.00
2015,10,22,15,46,14.10
2015,10,22,15,47,14.30
2015,10,22,15,48,14.30
2015,10,22,15,49,14.30
2015,10,22,15,50,14.40
2015,10,22,15,51,14.40
2015,10,22,15,52,14.40
2015,10,22,15,53,14.40
2015,10,22,15,54,14.40
2015,10,22,15,55,14.40
2015,10,22,15,56,14.50
2015,10,22,15,57,14.60
2015,10,22,15,58,14.60
2015,10,22,15,59,14.60
2015,10,22,16,00,14.60
2015,10,22,16,01,14.50
2015,10,22,16,02,14.40
2015,10,22,16,03,14.40
2015,10,22,16,04,14.40
2015,10,22,16,05,14.40
2015,10,22,16,06,14.40
2015,10,22,16,07,14.40
2015,10,22,16,08,14.40
2015,10,22,16,09,14.50
2015,10,22,16,10,14.50
2015,10,22,16,11,14.40
2015,10,22,16,12,14.40
2015,10,22,16,13,14.40
2015,10,22,16,14,14.40
2015,10,22,16,15,14.30
2015,10,22,16,16,14.30
2015,10,22,16,17,14.30
2015,10,22,16,18,14.30
2015,10,22,16,19,14.30
2015,10,22,16,20,14.40
2015,10,22,16,21,14.40
2015,10,22,16,22,14.40
2015,10,22,16,23,14.40
2015,10,22,16,24,14.40
2015,10,22,16,25,14.30
2015,10,22,16,26,14.30
2015,10,22,16,27,14.30
2015,10,22,16,28,14.30
2015,10,22,16,29,14.30
2015,10,22,16,30,14.30
2015,10,22,16,31,14.30
2015,10,22,16,32,14.30
2015,10,22,16,33,14.30
2015,10,22,16,34,14.30
2015,10,22,16,35,14.20
2015,10,22,16,36,14.20
2015,10,22,16,37,14.20
2015,10,22,16,38,14.20
2015,10,22,16,39,14.20
2015,10,22,16,40,14.10
2015,10,22,16,41,14.10
2015,10,22,16,42,14.10
2015,10,22,16,43,14.10
2015,10,22,16,44,14.00
2015,10,22,16,45,14.00
2015,10,22,16,46,14.00
2015,10,22,16,47,13.90
2015,10,22,16,48,13.90
2015,10,22,16,49,13.80
2015,10,22,16,50,13.80
2015,10,22,16,51,13.80
2015,10,22,16,52,13.80
2015,10,22,16,53,13.80
2015,10,22,16,54,13.70
2015,10,22,16,55,13.70
2015,10,22,16,56,13.70
2015,10,22,16,57,13.70
2015,10,22,16,58,13.70
2015,10,22,16,59,13.70
2015,10,22,17,00,13.70
2015,10,22,17,01,13.70
2015,10,22,17,02,13.70
2015,10,22,17,03,13.70
2015,10,22,17,04,13.70
2015,10,22,17,05,13.70
2015,10,22,17,06,13.70
2015,10,22,17,07,13.70
2015,10,22,17,08,13.70
2015,10,22,17,09,13.70
2015,10,22,17,10,13.70
2015,10,22,17,11,13.70
2015,10,22,17,12,13.70
2015,10,22,17,13,13.70
2015,10,22,17,14,13.60
2015,10,22,17,15,13.60
2015,10,22,17,16,13.60
2015,10,22,17,17,13.50
2015,10,22,17,18,13.50
2015,10,22,17,19,13.50
2015,10,22,17,20,13.40
2015,10,22,17,21,13.40
2015,10,22,17,22,13.30
2015,10,22,17,23,13.30
2015,10,22,17,24,13.30
2015,10,22,17,25,13.20
2015,10,22,17,26,13.20
2015,10,22,17,27,13.20
2015,10,22,17,28,13.20
2015,10,22,17,29,13.20
2015,10,22,17,30,13.10
2015,10,22,17,31,13.10
2015,10,22,17,32,13.10
2015,10,22,17,33,13.10
2015,10,22,17,34,13.00
2015,10,22,17,35,13.00
2015,10,22,17,36,12.90
2015,10,22,17,37,12.90
2015,10,22,17,38,12.90
2015,10,22,17,39,12.80
2015,10,22,17,40,12.80
2015,10,22,17,41,12.80
2015,10,22,17,42,12.80
2015,10,22,17,43,12.70
2015,10,22,17,44,12.70
2015,10,22,17,45,12.60
2015,10,22,17,46,12.60
2015,10,22,17,47,12.60
2015,10,22,17,48,12.50
2015,10,22,17,49,12.50
2015,10,22,17,50,12.40
2015,10,22,17,51,12.40
2015,10,22,17,52,12.40
2015,10,22,17,53,12.30
2015,10,22,17,54,12.30
2015,10,22,17,55,12.30
2015,10,22,17,56,12.20
2015,10,22,17,57,12.20
2015,10,22,17,58,12.20
2015,10,22,17,59,12.10
2015,10,22,18,00,12.10
2015,10,22,18,01,12.00
2015,10,22,18,02,12.00
2015,10,22,18,03,11.90
2015,10,22,18,04,11.90
2015,10,22,18,05,11.80
2015,10,22,18,06,11.80
2015,10,22,18,07,11.80
2015,10,22,18,08,11.80
2015,10,22,18,09,11.70
2015,10,22,18,10,11.70
2015,10,22,18,11,11.60
2015,10,22,18,12,11.60
2015,10,22,18,13,11.50
2015,10,22,18,14,11.50
2015,10,22,18,15,11.40
2015,10,22,18,16,11.40
2015,10,22,18,17,11.30
2015,10,22,18,18,11.30
2015,10,22,18,19,11.20
2015,10,22,18,20,11.20
2015,10,22,18,21,11.20
2015,10,22,18,22,11.10
2015,10,22,18,23,11.10
2015,10,22,18,24,11.00
2015,10,22,18,25,11.00
2015,10,22,18,26,10.90
2015,10,22,18,27,10.90
2015,10,22,18,28,10.80
2015,10,22,18,29,10.80
2015,10,22,18,30,10.80
2015,10,22,18,31,10.70
2015,10,22,18,32,10.70
2015,10,22,18,33,10.70
2015,10,22,18,34,10.60
2015,10,22,18,35,10.60
2015,10,22,18,36,10.60
2015,10,22,18,37,10.50
2015,10,22,18,38,10.50
2015,10,22,18,39,10.40
2015,10,22,18,40,10.40
2015,10,22,18,41,10.30
2015,10,22,18,42,10.30
2015,10,22,18,43,10.30
2015,10,22,18,44,10.20
2015,10,22,18,45,10.20
2015,10,22,18,46,10.20
2015,10,22,18,47,10.10
2015,10,22,18,48,10.10
2015,10,22,18,49,10.10
2015,10,22,18,50,10.10
2015,10,22,18,51,10.10
2015,10,22,18,52,10.00
2015,10,22,18,53,10.00
2015,10,22,18,54,10.00
2015,10,22,18,55,10.00
2015,10,22,18,56,10.00
2015,10,22,18,57,9.90
2015,10,22,18,58,9.90
2015,10,22,18,59,9.90
2015,10,22,19,00,9.90
2015,10,22,19,01,9.90
2015,10,22,19,02,9.90
2015,10,22,19,03,9.80
2015,10,22,19,04,9.80
2015,10,22,19,05,9.70
2015,10,22,19,06,9.70
2015,10,22,19,07,9.60
2015,10,22,19,08,9.60
2015,10,22,19,09,9.50
2015,10,22,19,10,9.50
2015,10,22,19,11,9.40
2015,10,22,19,12,9.40
2015,10,22,19,13,9.30
2015,10,22,19,14,9.30
2015,10,22,19,15,9.30
2015,10,22,19,16,9.30
2015,10,22,19,17,9.30
2015,10,22,19,18,9.20
2015,10,22,19,19,9.20
2015,10,22,19,20,9.20
2015,10,22,19,21,9.20
2015,10,22,19,22,9.10
2015,10,22,19,23,9.10
2015,10,22,19,24,9.00
2015,10,22,19,25,9.00
2015,10,22,19,26,9.00
2015,10,22,19,27,8.90
2015,10,22,19,28,8.90
2015,10,22,19,29,8.90
2015,10,22,19,30,8.90
2015,10,22,19,31,8.90
2015,10,22,19,32,8.80
2015,10,22,19,33,8.80
2015,10,22,19,34,8.80
2015,10,22,19,35,8.80
2015,10,22,19,36,8.70
2015,10,22,19,37,8.70
2015,10,22,19,38,8.70
2015,10,22,19,39,8.70
2015,10,22,19,40,8.70
2015,10,22,19,41,8.70
2015,10,22,19,42,8.70
2015,10,22,19,43,8.60
2015,10,22,19,44,8.60
2015,10,22,19,45,8.60
2015,10,22,19,46,8.60
2015,10,22,19,47,8.70
2015,10,22,19,48,8.70
2015,10,22,19,49,8.70
2015,10,22,19,50,8.70
2015,10,22,19,51,8.70
2015,10,22,19,52,8.60
2015,10,22,19,53,8.60
2015,10,22,19,54,8.50
2015,10,22,19,55,8.50
2015,10,22,19,56,8.40
2015,10,22,19,57,8.30
2015,10,22,19,58,8.30
2015,10,22,19,59,8.30
2015,10,22,20,00,8.20
2015,10,22,20,01,8.20
2015,10,22,20,02,8.20
2015,10,22,20,03,8.20
2015,10,22,20,04,8.20
2015,10,22,20,05,8.10
2015,10,22,20,06,8.10
2015,10,22,20,07,8.10
2015,10,22,20,08,8.10
2015,10,22,20,09,8.10
2015,10,22,20,10,8.10
2015,10,22,20,11,8.10
2015,10,22,20,12,8.10
2015,10,22,20,13,8.10
2015,10,22,20,14,8.10
2015,10,22,20,15,8.10
2015,10,22,20,16,8.10
